Location: Keewatin
(47.4004°N, 93.0827°W)
Time: 12:50:31
(UTC+00:00)

KKS-1 - Pass Details

Date: 25 February 2020
Orbit: 637 x 650 km, 98.3° (Epoch: 05 April)

Event Time Altitude Azimuth Distance (km) Brightness Sun altitude
Rises 11:31:32 0° 113° (ESE) 2,951 ? -15.9°
Reaches altitude 10° 11:34:44 10° 88° (E) 2,043 ? -15.3°
Maximum altitude 11:36:56 14° 58° (ENE) 1,807 ? -15.0°
Drops below altitude 10° 11:39:09 10° 28° (NNE) 2,046 ? -14.6°
Sets 11:42:21 0° 3° (N) 2,958 ? -14.0°
